Miscellaneous Local Product
Issued by NWS Hastings, NE

Home | Current Version | Previous Version | Graphics & Text | Print | Product List | Glossary Off
Versions: 1 2 3 4 5 6 7 8 9 10 11 12 13 14 15 16 17 18 19 20 21 22 23 24 25 26 27 28 29 30 31 32 33 34 35 36 37 38 39 40 41 42 43 44 45 46 47 48 49 50

000
AXUS43 KGID 300302
MISGRI

GID CWA HOURLY WEATHER ROUNDUP
NATIONAL WEATHER SERVICE HASTINGS NE
1000 PM CDT FRI MAY 29 2015

NOTE: "FAIR" INDICATES FEW OR NO CLOUDS BELOW 12,000 FEET WITH NO
SIGNIFICANT WEATHER AND/OR OBSTRUCTIONS TO VISIBILITY.

...SOUTH CENTRAL NEBRASKA...

CITY           SKY/WX    TMP DP  RH WIND       PRES   REMARKS
GRAND ISLAND   CLOUDY    53  46  77 N26G36    30.14R
HASTINGS       CLOUDY    54  47  77 N25G32    30.11S
KEARNEY        CLOUDY    54  45  71 N25       30.16R
ORD            CLOUDY    50  46  86 N16       30.17R
YORK           CLOUDY    54  50  87 N22G31    30.12R
AURORA         CLOUDY    54  50  87 N23G29    30.13R
LEXINGTON      CLOUDY    52  47  85 N10       30.20R
HOLDREGE       CLOUDY    53  48  83 N22G28    30.16R
HEBRON         LGT RAIN  57  49  74 N16G22    30.09R

...NEBRASKA PANHANDLE...

CITY           SKY/WX    TMP DP  RH WIND       PRES   REMARKS
CHADRON        CLOUDY    48  46  93 SW5       30.29S
ALLIANCE       CLOUDY    47  44  90 NW7       30.28S
SCOTTSBLUFF    CLOUDY    49  46  90 E6        30.30F
SIDNEY         CLOUDY    48  44  86 N13       30.30R

...WESTERN AND NORTH CENTRAL NEBRASKA...

CITY           SKY/WX    TMP DP  RH WIND       PRES   REMARKS
VALENTINE      PTCLDY    45  43  93 NW7       30.25R
AINSWORTH      CLOUDY    48  45  90 N13G18    30.22S
ONEILL         CLOUDY    50  48  93 N15G22    30.18R
BROKEN BOW     CLOUDY    51  45  79 N21       30.19R
IMPERIAL       CLOUDY    51  45  79 N15       30.25R
NORTH PLATTE   CLOUDY    50  45  83 N13G20    30.23R
MCCOOK         CLOUDY    53  47  79 N16G26    30.20R

...EASTERN NEBRASKA...

CITY           SKY/WX    TMP DP  RH WIND       PRES   REMARKS
NORFOLK        CLOUDY    51  47  86 N18G28    30.12R
SO SIOUX CITY  CLOUDY    54  48  80 N17G28    30.10R
TEKAMAH        CLOUDY    58  52  80 N22       30.06R
COLUMBUS       CLOUDY    54  45  71 N20G29    30.11R
ALBION         CLOUDY    49  46  88 N20G29    30.13R
OMAHA EPPLEY   CLOUDY    59  55  87 N25G33    30.01R
MILLARD        CLOUDY    61  56  83 NW12G23   30.03R
LINCOLN        CLOUDY    59  52  77 N26G32    30.07R
NEBRASKA CITY  DRIZZLE   65  64  97 N17G24    29.99R
BEATRICE       CLOUDY    60  56  86 N24       30.05R
FALLS CITY     CLOUDY    68  65  90 S7        29.94R

...NORTHERN KANSAS...

CITY           SKY/WX    TMP DP  RH WIND       PRES   REMARKS
GOODLAND       CLOUDY    53  48  83 N14       30.22R
HILL CITY      CLOUDY    58  52  80 N16G24    30.16R
NORTON         CLOUDY    54  46  76 N17       30.17R
PHILLIPSBURG   RAIN      59  52  77 N16G26    30.14R
HAYS           PTCLDY    59  48  67 N23G31    30.09R
RUSSELL        CLOUDY    59  57  93 NW16      30.06R
CONCORDIA      RAIN      57  54  89 N21G30    30.05F FOG
SALINA         CLOUDY    64  55  72 N23G35    30.03R
TOPEKA         CLOUDY    67  65  93 SE3       29.97R



USA.gov is the U.S. government's official web portal to all federal, state and local government web resources and services.